contact:dominique.lefevre@mio.osupytheas.fr, maurice.libes@osupytheas.fr, didier.mallarino@osupytheas.fr
Project:EMSO http://www.emso-fr.org/EMSO-France
Depth: 2436.0 m
Title:EMSO Ligure Ouest : Data MII capteur MICROCAT
DateTime_Computer,Latitude,Longitude,Temperature,Conductivity,Pressure,DateTime_Instrument
DateTime_Computer,Latitude,Longitude,degC,S m-1,dbar,DateTime_Instrument
2023-01-17T00:00:21Z,42.805,6.029,13.3026,4.60098,2470.553,2023-1-17T02:06:40Z
2023-01-17T00:03:24Z,42.805,6.029,13.3025,4.60102,2470.53,2023-1-17T02:09:43Z
2023-01-17T00:06:28Z,42.805,6.029,13.3031,4.60098,2470.507,2023-1-17T02:12:46Z
2023-01-17T00:09:31Z,42.805,6.029,13.3028,4.60099,2470.567,2023-1-17T02:15:49Z
2023-01-17T00:12:34Z,42.805,6.029,13.3029,4.60096,2470.507,2023-1-17T02:18:52Z
2023-01-17T00:15:37Z,42.805,6.029,13.3023,4.60099,2470.544,2023-1-17T02:21:55Z
2023-01-17T00:18:40Z,42.805,6.029,13.3031,4.60103,2470.516,2023-1-17T02:24:59Z
2023-01-17T00:21:43Z,42.805,6.029,13.3029,4.60102,2470.553,2023-1-17T02:28:02Z
2023-01-17T00:24:46Z,42.805,6.029,13.3029,4.60099,2470.53,2023-1-17T02:31:05Z
2023-01-17T00:27:49Z,42.805,6.029,13.3028,4.60098,2470.553,2023-1-17T02:34:08Z
2023-01-17T00:30:52Z,42.805,6.029,13.3022,4.60097,2470.567,2023-1-17T02:37:11Z
2023-01-17T00:33:55Z,42.805,6.029,13.3031,4.60111,2470.577,2023-1-17T02:40:14Z
2023-01-17T00:36:58Z,42.805,6.029,13.3027,4.60111,2470.553,2023-1-17T02:43:17Z
2023-01-17T00:40:01Z,42.805,6.029,13.3023,4.60110,2470.553,2023-1-17T02:46:20Z
2023-01-17T00:43:05Z,42.805,6.029,13.3027,4.60112,2470.553,2023-1-17T02:49:23Z
2023-01-17T00:46:08Z,42.805,6.029,13.3034,4.60111,2470.544,2023-1-17T02:52:26Z
2023-01-17T00:49:11Z,42.805,6.029,13.3028,4.60104,2470.553,2023-1-17T02:55:29Z
2023-01-17T00:52:14Z,42.805,6.029,13.3031,4.60108,2470.553,2023-1-17T02:58:33Z
2023-01-17T00:55:17Z,42.805,6.029,13.3022,4.60108,2470.544,2023-1-17T03:01:36Z
2023-01-17T00:58:20Z,42.805,6.029,13.3023,4.60102,2470.567,2023-1-17T03:04:39Z
2023-01-17T01:01:23Z,42.805,6.029,13.3024,4.60100,2470.53,2023-1-17T03:07:42Z
2023-01-17T01:04:26Z,42.805,6.029,13.3024,4.60107,2470.567,2023-1-17T03:10:45Z
2023-01-17T01:07:29Z,42.805,6.029,13.3022,4.60107,2470.553,2023-1-17T03:13:48Z
2023-01-17T01:10:32Z,42.805,6.029,13.3033,4.60090,2470.553,2023-1-17T03:16:51Z
2023-01-17T01:13:35Z,42.805,6.029,13.3031,4.60111,2470.563,2023-1-17T03:19:54Z
2023-01-17T01:16:38Z,42.805,6.029,13.3022,4.60113,2470.577,2023-1-17T03:22:57Z
2023-01-17T01:19:42Z,42.805,6.029,13.3041,4.60104,2470.577,2023-1-17T03:26:00Z
2023-01-17T01:22:45Z,42.805,6.029,13.3029,4.60132,2470.567,2023-1-17T03:29:03Z
2023-01-17T01:25:48Z,42.805,6.029,13.3032,4.60103,2470.567,2023-1-17T03:32:07Z
2023-01-17T01:28:51Z,42.805,6.029,13.3037,4.60112,2470.53,2023-1-17T03:35:10Z
2023-01-17T01:31:54Z,42.805,6.029,13.3026,4.60110,2470.591,2023-1-17T03:38:13Z
2023-01-17T01:34:57Z,42.805,6.029,13.3031,4.60128,2470.553,2023-1-17T03:41:16Z
2023-01-17T01:38:00Z,42.805,6.029,13.3029,4.60117,2470.577,2023-1-17T03:44:19Z
2023-01-17T01:41:03Z,42.805,6.029,13.3031,4.60124,2470.614,2023-1-17T03:47:22Z
2023-01-17T01:44:06Z,42.805,6.029,13.3034,4.60126,2470.567,2023-1-17T03:50:25Z
2023-01-17T01:47:09Z,42.805,6.029,13.3032,4.60129,2470.577,2023-1-17T03:53:28Z
2023-01-17T01:50:12Z,42.805,6.029,13.3030,4.60111,2470.591,2023-1-17T03:56:31Z
2023-01-17T01:53:16Z,42.805,6.029,13.3036,4.60119,2470.577,2023-1-17T03:59:34Z
2023-01-17T01:56:19Z,42.805,6.029,13.3031,4.60106,2470.591,2023-1-17T04:02:37Z
2023-01-17T01:59:22Z,42.805,6.029,13.3030,4.60115,2470.577,2023-1-17T04:05:41Z
2023-01-17T02:02:25Z,42.805,6.029,13.3032,4.60118,2470.591,2023-1-17T04:08:44Z
2023-01-17T02:05:28Z,42.805,6.029,13.3034,4.60115,2470.591,2023-1-17T04:11:47Z
2023-01-17T02:08:31Z,42.805,6.029,13.3033,4.60122,2470.567,2023-1-17T04:14:50Z
2023-01-17T02:11:34Z,42.805,6.029,13.3031,4.60119,2470.53,2023-1-17T04:17:53Z
2023-01-17T02:14:37Z,42.805,6.029,13.3025,4.60112,2470.577,2023-1-17T04:20:56Z
2023-01-17T02:17:40Z,42.805,6.029,13.3038,4.60127,2470.553,2023-1-17T04:23:59Z
2023-01-17T02:20:43Z,42.805,6.029,13.3040,4.60097,2470.577,2023-1-17T04:27:02Z
2023-01-17T02:23:46Z,42.805,6.029,13.3032,4.60112,2470.577,2023-1-17T04:30:05Z
2023-01-17T02:26:49Z,42.805,6.029,13.3035,4.60124,2470.591,2023-1-17T04:33:08Z
2023-01-17T02:29:53Z,42.805,6.029,13.3045,4.60110,2470.591,2023-1-17T04:36:11Z
2023-01-17T02:32:56Z,42.805,6.029,13.3031,4.60123,2470.577,2023-1-17T04:39:14Z
2023-01-17T02:35:59Z,42.805,6.029,13.3036,4.60112,2470.604,2023-1-17T04:42:18Z
2023-01-17T02:39:02Z,42.805,6.029,13.3034,4.60107,2470.577,2023-1-17T04:45:21Z
2023-01-17T02:42:05Z,42.805,6.029,13.3029,4.60119,2470.577,2023-1-17T04:48:24Z
2023-01-17T02:45:08Z,42.805,6.029,13.3025,4.60098,2470.6,2023-1-17T04:51:27Z
2023-01-17T02:48:11Z,42.805,6.029,13.3030,4.60111,2470.61,2023-1-17T04:54:30Z
2023-01-17T02:51:14Z,42.805,6.029,13.3026,4.60118,2470.6,2023-1-17T04:57:33Z
2023-01-17T02:54:17Z,42.805,6.029,13.3031,4.60118,2470.6,2023-1-17T05:00:36Z
2023-01-17T02:57:20Z,42.805,6.029,13.3030,4.60114,2470.577,2023-1-17T05:03:39Z
2023-01-17T03:00:23Z,42.805,6.029,13.3031,4.60126,2470.6,2023-1-17T05:06:42Z
2023-01-17T03:03:27Z,42.805,6.029,13.3033,4.60119,2470.577,2023-1-17T05:09:45Z
2023-01-17T03:06:30Z,42.805,6.029,13.3039,4.60144,2470.6,2023-1-17T05:12:48Z
2023-01-17T03:09:33Z,42.805,6.029,13.3044,4.60146,2470.6,2023-1-17T05:15:52Z
2023-01-17T03:12:36Z,42.805,6.029,13.3030,4.60137,2470.614,2023-1-17T05:18:55Z
2023-01-17T03:15:39Z,42.805,6.029,13.3031,4.60125,2470.6,2023-1-17T05:21:58Z
2023-01-17T03:18:42Z,42.805,6.029,13.3031,4.60116,2470.553,2023-1-17T05:25:01Z
2023-01-17T03:21:45Z,42.805,6.029,13.3035,4.60132,2470.6,2023-1-17T05:28:04Z
2023-01-17T03:24:48Z,42.805,6.029,13.3031,4.60137,2470.6,2023-1-17T05:31:07Z
2023-01-17T03:27:51Z,42.805,6.029,13.3041,4.60162,2470.577,2023-1-17T05:34:10Z
2023-01-17T03:30:54Z,42.805,6.029,13.3052,4.60133,2470.577,2023-1-17T05:37:13Z
2023-01-17T03:33:57Z,42.805,6.029,13.3036,4.60137,2470.624,2023-1-17T05:40:16Z
2023-01-17T03:37:00Z,42.805,6.029,13.3038,4.60131,2470.591,2023-1-17T05:43:19Z
2023-01-17T03:40:04Z,42.805,6.029,13.3045,4.60128,2470.591,2023-1-17T05:46:22Z
2023-01-17T03:43:07Z,42.805,6.029,13.3045,4.60135,2470.61,2023-1-17T05:49:25Z
2023-01-17T03:46:10Z,42.805,6.029,13.3037,4.60138,2470.624,2023-1-17T05:52:29Z
2023-01-17T03:49:13Z,42.805,6.029,13.3063,4.60124,2470.614,2023-1-17T05:55:32Z
2023-01-17T03:52:16Z,42.805,6.029,13.3040,4.60125,2470.6,2023-1-17T05:58:35Z
2023-01-17T03:55:19Z,42.805,6.029,13.3042,4.60117,2470.614,2023-1-17T06:01:38Z
2023-01-17T03:58:22Z,42.805,6.029,13.3028,4.60132,2470.6,2023-1-17T06:04:41Z
2023-01-17T04:01:25Z,42.805,6.029,13.3033,4.60141,2470.614,2023-1-17T06:07:44Z
2023-01-17T04:04:28Z,42.805,6.029,13.3036,4.60122,2470.614,2023-1-17T06:10:47Z
2023-01-17T04:07:31Z,42.805,6.029,13.3041,4.60127,2470.624,2023-1-17T06:13:50Z
2023-01-17T04:10:34Z,42.805,6.029,13.3029,4.60149,2470.577,2023-1-17T06:16:53Z
2023-01-17T04:13:38Z,42.805,6.029,13.3048,4.60144,2470.6,2023-1-17T06:19:56Z
2023-01-17T04:16:41Z,42.805,6.029,13.3039,4.60131,2470.6,2023-1-17T06:22:59Z
2023-01-17T04:19:44Z,42.805,6.029,13.3037,4.60136,2470.6,2023-1-17T06:26:03Z
2023-01-17T04:22:47Z,42.805,6.029,13.3050,4.60138,2470.614,2023-1-17T06:29:06Z
2023-01-17T04:25:50Z,42.805,6.029,13.3039,4.60117,2470.614,2023-1-17T06:32:09Z
2023-01-17T04:28:53Z,42.805,6.029,13.3048,4.60127,2470.614,2023-1-17T06:35:12Z
2023-01-17T04:31:56Z,42.805,6.029,13.3048,4.60160,2470.614,2023-1-17T06:38:15Z
2023-01-17T04:34:59Z,42.805,6.029,13.3045,4.60173,2470.614,2023-1-17T06:41:18Z
2023-01-17T04:38:02Z,42.805,6.029,13.3063,4.60167,2470.591,2023-1-17T06:44:21Z
2023-01-17T04:41:05Z,42.805,6.029,13.3056,4.60156,2470.577,2023-1-17T06:47:24Z
2023-01-17T04:44:08Z,42.805,6.029,13.3029,4.60140,2470.577,2023-1-17T06:50:27Z
2023-01-17T04:47:11Z,42.805,6.029,13.3048,4.60137,2470.553,2023-1-17T06:53:30Z
2023-01-17T04:50:15Z,42.805,6.029,13.3043,4.60155,2470.591,2023-1-17T06:56:33Z
2023-01-17T04:53:18Z,42.805,6.029,13.3051,4.60162,2470.6,2023-1-17T06:59:36Z
2023-01-17T04:56:21Z,42.805,6.029,13.3041,4.60150,2470.577,2023-1-17T07:02:40Z
2023-01-17T04:59:24Z,42.805,6.029,13.3042,4.60136,2470.591,2023-1-17T07:05:43Z
2023-01-17T05:02:27Z,42.805,6.029,13.3051,4.60128,2470.591,2023-1-17T07:08:46Z
2023-01-17T05:05:30Z,42.805,6.029,13.3047,4.60125,2470.6,2023-1-17T07:11:49Z
2023-01-17T05:08:33Z,42.805,6.029,13.3043,4.60141,2470.591,2023-1-17T07:14:52Z
2023-01-17T05:11:36Z,42.805,6.029,13.3034,4.60168,2470.591,2023-1-17T07:17:55Z
2023-01-17T05:14:39Z,42.805,6.029,13.3031,4.60140,2470.6,2023-1-17T07:20:58Z
2023-01-17T05:17:42Z,42.805,6.029,13.3036,4.60112,2470.591,2023-1-17T07:24:01Z
2023-01-17T05:20:45Z,42.805,6.029,13.3035,4.60139,2470.637,2023-1-17T07:27:04Z
2023-01-17T05:23:48Z,42.805,6.029,13.3052,4.60148,2470.6,2023-1-17T07:30:07Z
2023-01-17T05:26:52Z,42.805,6.029,13.3031,4.60122,2470.6,2023-1-17T07:33:10Z
2023-01-17T05:29:55Z,42.805,6.029,13.3033,4.60118,2470.614,2023-1-17T07:36:14Z
2023-01-17T05:32:58Z,42.805,6.029,13.3038,4.60111,2470.553,2023-1-17T07:39:17Z
2023-01-17T05:36:01Z,42.805,6.029,13.3046,4.60160,2470.567,2023-1-17T07:42:20Z
2023-01-17T05:39:04Z,42.805,6.029,13.3042,4.60155,2470.6,2023-1-17T07:45:23Z
2023-01-17T05:42:07Z,42.805,6.029,13.3032,4.60119,2470.567,2023-1-17T07:48:26Z
2023-01-17T05:45:10Z,42.805,6.029,13.3031,4.60116,2470.591,2023-1-17T07:51:29Z
2023-01-17T05:48:13Z,42.805,6.029,13.3033,4.60123,2470.591,2023-1-17T07:54:32Z
2023-01-17T05:51:16Z,42.805,6.029,13.3037,4.60131,2470.6,2023-1-17T07:57:35Z
2023-01-17T05:54:19Z,42.805,6.029,13.3038,4.60135,2470.6,2023-1-17T08:00:38Z
2023-01-17T05:57:22Z,42.805,6.029,13.3049,4.60130,2470.591,2023-1-17T08:03:41Z
2023-01-17T06:00:26Z,42.805,6.029,13.3035,4.60139,2470.577,2023-1-17T08:06:44Z
2023-01-17T06:03:29Z,42.805,6.029,13.3039,4.60131,2470.6,2023-1-17T08:09:48Z
2023-01-17T06:06:32Z,42.805,6.029,13.3034,4.60129,2470.567,2023-1-17T08:12:51Z
2023-01-17T06:09:35Z,42.805,6.029,13.3051,4.60129,2470.6,2023-1-17T08:15:54Z
2023-01-17T06:12:38Z,42.805,6.029,13.3032,4.60110,2470.591,2023-1-17T08:18:57Z
2023-01-17T06:15:41Z,42.805,6.029,13.3034,4.60098,2470.586,2023-1-17T08:22:00Z
2023-01-17T06:18:44Z,42.805,6.029,13.3030,4.60104,2470.591,2023-1-17T08:25:03Z
2023-01-17T06:21:47Z,42.805,6.029,13.3026,4.60109,2470.567,2023-1-17T08:28:06Z
2023-01-17T06:24:50Z,42.805,6.029,13.3031,4.60101,2470.591,2023-1-17T08:31:09Z
2023-01-17T06:27:53Z,42.805,6.029,13.3035,4.60102,2470.577,2023-1-17T08:34:12Z
2023-01-17T06:30:56Z,42.805,6.029,13.3029,4.60114,2470.591,2023-1-17T08:37:15Z
2023-01-17T06:33:59Z,42.805,6.029,13.3026,4.60120,2470.591,2023-1-17T08:40:18Z
2023-01-17T06:37:03Z,42.805,6.029,13.3031,4.60099,2470.577,2023-1-17T08:43:21Z
2023-01-17T06:40:06Z,42.805,6.029,13.3039,4.60097,2470.591,2023-1-17T08:46:25Z
2023-01-17T06:43:09Z,42.805,6.029,13.3030,4.60109,2470.53,2023-1-17T08:49:28Z
2023-01-17T06:46:12Z,42.805,6.029,13.3039,4.60103,2470.591,2023-1-17T08:52:31Z
2023-01-17T06:49:15Z,42.805,6.029,13.3046,4.60116,2470.577,2023-1-17T08:55:34Z
2023-01-17T06:52:18Z,42.805,6.029,13.3039,4.60100,2470.577,2023-1-17T08:58:37Z
2023-01-17T06:55:21Z,42.805,6.029,13.3031,4.60102,2470.553,2023-1-17T09:01:40Z
2023-01-17T06:58:24Z,42.805,6.029,13.3031,4.60108,2470.553,2023-1-17T09:04:43Z
2023-01-17T07:01:27Z,42.805,6.029,13.3039,4.60115,2470.567,2023-1-17T09:07:46Z
2023-01-17T07:04:30Z,42.805,6.029,13.3038,4.60110,2470.591,2023-1-17T09:10:49Z
2023-01-17T07:07:33Z,42.805,6.029,13.3032,4.60115,2470.567,2023-1-17T09:13:52Z
2023-01-17T07:10:37Z,42.805,6.029,13.3031,4.60105,2470.53,2023-1-17T09:16:55Z
2023-01-17T07:13:40Z,42.805,6.029,13.3039,4.60128,2470.553,2023-1-17T09:19:59Z
2023-01-17T07:16:43Z,42.805,6.029,13.3039,4.60119,2470.577,2023-1-17T09:23:02Z
2023-01-17T07:19:46Z,42.805,6.029,13.3035,4.60116,2470.53,2023-1-17T09:26:05Z
2023-01-17T07:22:49Z,42.805,6.029,13.3029,4.60113,2470.553,2023-1-17T09:29:08Z
2023-01-17T07:25:52Z,42.805,6.029,13.3046,4.60134,2470.53,2023-1-17T09:32:11Z
2023-01-17T07:28:55Z,42.805,6.029,13.3041,4.60125,2470.553,2023-1-17T09:35:14Z
2023-01-17T07:31:58Z,42.805,6.029,13.3047,4.60126,2470.553,2023-1-17T09:38:17Z
2023-01-17T07:35:01Z,42.805,6.029,13.3051,4.60123,2470.553,2023-1-17T09:41:20Z
2023-01-17T07:38:04Z,42.805,6.029,13.3070,4.60125,2470.53,2023-1-17T09:44:23Z
2023-01-17T07:41:07Z,42.805,6.029,13.3048,4.60119,2470.567,2023-1-17T09:47:26Z
2023-01-17T07:44:10Z,42.805,6.029,13.3043,4.60152,2470.553,2023-1-17T09:50:29Z
2023-01-17T07:47:14Z,42.805,6.029,13.3043,4.60132,2470.567,2023-1-17T09:53:32Z
2023-01-17T07:50:17Z,42.805,6.029,13.3045,4.60119,2470.577,2023-1-17T09:56:36Z
2023-01-17T07:53:20Z,42.805,6.029,13.3047,4.60114,2470.553,2023-1-17T09:59:39Z
2023-01-17T07:56:23Z,42.805,6.029,13.3037,4.60101,2470.591,2023-1-17T10:02:42Z
2023-01-17T07:59:26Z,42.805,6.029,13.3035,4.60110,2470.591,2023-1-17T10:05:45Z
2023-01-17T08:02:29Z,42.805,6.029,13.3029,4.60108,2470.591,2023-1-17T10:08:48Z
2023-01-17T08:05:32Z,42.805,6.029,13.3038,4.60129,2470.591,2023-1-17T10:11:51Z
2023-01-17T08:08:35Z,42.805,6.029,13.3051,4.60124,2470.553,2023-1-17T10:14:54Z
2023-01-17T08:11:38Z,42.805,6.029,13.3039,4.60126,2470.614,2023-1-17T10:17:57Z
2023-01-17T08:14:41Z,42.805,6.029,13.3048,4.60111,2470.52,2023-1-17T10:21:00Z
2023-01-17T08:17:44Z,42.805,6.029,13.3033,4.60114,2470.577,2023-1-17T10:24:03Z
2023-01-17T08:20:48Z,42.805,6.029,13.3047,4.60119,2470.563,2023-1-17T10:27:07Z
2023-01-17T08:23:51Z,42.805,6.029,13.3045,4.60127,2470.577,2023-1-17T10:30:10Z
2023-01-17T08:26:54Z,42.805,6.029,13.3036,4.60122,2470.567,2023-1-17T10:33:13Z
2023-01-17T08:29:57Z,42.805,6.029,13.3028,4.60095,2470.544,2023-1-17T10:36:16Z
2023-01-17T08:33:00Z,42.805,6.029,13.3031,4.60093,2470.567,2023-1-17T10:39:19Z
2023-01-17T08:36:03Z,42.805,6.029,13.3040,4.60115,2470.567,2023-1-17T10:42:22Z
2023-01-17T08:39:06Z,42.805,6.029,13.3037,4.60119,2470.544,2023-1-17T10:45:25Z
2023-01-17T08:42:09Z,42.805,6.029,13.3034,4.60096,2470.567,2023-1-17T10:48:28Z
2023-01-17T08:45:12Z,42.805,6.029,13.3034,4.60102,2470.6,2023-1-17T10:51:31Z
2023-01-17T08:48:15Z,42.805,6.029,13.3030,4.60088,2470.577,2023-1-17T10:54:34Z
2023-01-17T08:51:19Z,42.805,6.029,13.3033,4.60112,2470.53,2023-1-17T10:57:38Z
2023-01-17T08:54:22Z,42.805,6.029,13.3028,4.60085,2470.577,2023-1-17T11:00:41Z
2023-01-17T08:57:25Z,42.805,6.029,13.3043,4.60114,2470.53,2023-1-17T11:03:44Z
2023-01-17T09:00:28Z,42.805,6.029,13.3029,4.60108,2470.553,2023-1-17T11:06:47Z
2023-01-17T09:03:31Z,42.805,6.029,13.3031,4.60097,2470.567,2023-1-17T11:09:50Z
2023-01-17T09:06:34Z,42.805,6.029,13.3031,4.60101,2470.553,2023-1-17T11:12:53Z
2023-01-17T09:09:37Z,42.805,6.029,13.3031,4.60107,2470.553,2023-1-17T11:15:56Z
2023-01-17T09:12:40Z,42.805,6.029,13.3026,4.60107,2470.53,2023-1-17T11:18:59Z
2023-01-17T09:15:43Z,42.805,6.029,13.3026,4.60101,2470.553,2023-1-17T11:22:02Z
2023-01-17T09:18:46Z,42.805,6.029,13.3031,4.60097,2470.553,2023-1-17T11:25:05Z
2023-01-17T09:21:49Z,42.805,6.029,13.3028,4.60094,2470.567,2023-1-17T11:28:08Z
2023-01-17T09:24:52Z,42.805,6.029,13.3029,4.60097,2470.53,2023-1-17T11:31:12Z
2023-01-17T09:27:56Z,42.805,6.029,13.3033,4.60092,2470.553,2023-1-17T11:34:15Z
2023-01-17T09:30:59Z,42.805,6.029,13.3034,4.60092,2470.567,2023-1-17T11:37:18Z
2023-01-17T09:34:02Z,42.805,6.029,13.3028,4.60093,2470.577,2023-1-17T11:40:21Z
2023-01-17T09:37:05Z,42.805,6.029,13.3031,4.60102,2470.53,2023-1-17T11:43:24Z
2023-01-17T09:40:08Z,42.805,6.029,13.3033,4.60095,2470.591,2023-1-17T11:46:27Z
2023-01-17T09:43:11Z,42.805,6.029,13.3032,4.60093,2470.567,2023-1-17T11:49:30Z
2023-01-17T09:46:14Z,42.805,6.029,13.3035,4.60104,2470.53,2023-1-17T11:52:33Z
2023-01-17T09:49:17Z,42.805,6.029,13.3039,4.60104,2470.553,2023-1-17T11:55:36Z
2023-01-17T09:52:20Z,42.805,6.029,13.3037,4.60094,2470.591,2023-1-17T11:58:39Z
2023-01-17T09:55:23Z,42.805,6.029,13.3027,4.60087,2470.577,2023-1-17T12:01:42Z
2023-01-17T09:58:27Z,42.805,6.029,13.3026,4.60097,2470.53,2023-1-17T12:04:46Z
2023-01-17T10:01:30Z,42.805,6.029,13.3030,4.60095,2470.591,2023-1-17T12:07:49Z
2023-01-17T10:04:33Z,42.805,6.029,13.3039,4.60107,2470.6,2023-1-17T12:10:52Z
2023-01-17T10:07:36Z,42.805,6.029,13.3041,4.60115,2470.553,2023-1-17T12:13:55Z
2023-01-17T10:10:39Z,42.805,6.029,13.3032,4.60087,2470.53,2023-1-17T12:16:58Z
2023-01-17T10:13:42Z,42.805,6.029,13.3029,4.60092,2470.577,2023-1-17T12:20:01Z
2023-01-17T10:16:45Z,42.805,6.029,13.3032,4.60095,2470.567,2023-1-17T12:23:04Z
2023-01-17T10:19:48Z,42.805,6.029,13.3028,4.60102,2470.553,2023-1-17T12:26:07Z
2023-01-17T10:22:51Z,42.805,6.029,13.3041,4.60098,2470.577,2023-1-17T12:29:10Z
2023-01-17T10:25:54Z,42.805,6.029,13.3026,4.60100,2470.577,2023-1-17T12:32:13Z
2023-01-17T10:28:57Z,42.805,6.029,13.3021,4.60089,2470.567,2023-1-17T12:35:17Z
2023-01-17T10:32:01Z,42.805,6.029,13.3027,4.60096,2470.553,2023-1-17T12:38:20Z
2023-01-17T10:35:04Z,42.805,6.029,13.3024,4.60088,2470.591,2023-1-17T12:41:23Z
2023-01-17T10:38:07Z,42.805,6.029,13.3029,4.60098,2470.553,2023-1-17T12:44:26Z
2023-01-17T10:41:10Z,42.805,6.029,13.3034,4.60092,2470.591,2023-1-17T12:47:29Z
2023-01-17T10:44:13Z,42.805,6.029,13.3034,4.60108,2470.591,2023-1-17T12:50:32Z
2023-01-17T10:47:16Z,42.805,6.029,13.3031,4.60102,2470.591,2023-1-17T12:53:35Z
2023-01-17T10:50:19Z,42.805,6.029,13.3026,4.60098,2470.577,2023-1-17T12:56:38Z
2023-01-17T10:53:22Z,42.805,6.029,13.3029,4.60090,2470.553,2023-1-17T12:59:41Z
2023-01-17T10:56:25Z,42.805,6.029,13.3027,4.60095,2470.553,2023-1-17T13:02:44Z
2023-01-17T10:59:28Z,42.805,6.029,13.3024,4.60093,2470.577,2023-1-17T13:05:47Z
2023-01-17T11:02:31Z,42.805,6.029,13.3029,4.60086,2470.577,2023-1-17T13:08:51Z
2023-01-17T11:05:35Z,42.805,6.029,13.3036,4.60090,2470.591,2023-1-17T13:11:54Z
2023-01-17T11:08:38Z,42.805,6.029,13.3031,4.60090,2470.6,2023-1-17T13:14:57Z
2023-01-17T11:11:41Z,42.805,6.029,13.3029,4.60087,2470.591,2023-1-17T13:18:00Z
2023-01-17T11:14:44Z,42.805,6.029,13.3036,4.60109,2470.614,2023-1-17T13:21:03Z
2023-01-17T11:17:47Z,42.805,6.029,13.3038,4.60111,2470.6,2023-1-17T13:24:06Z
2023-01-17T11:20:50Z,42.805,6.029,13.3031,4.60119,2470.624,2023-1-17T13:27:09Z
2023-01-17T11:23:53Z,42.805,6.029,13.3040,4.60117,2470.577,2023-1-17T13:30:12Z
2023-01-17T11:26:56Z,42.805,6.029,13.3034,4.60098,2470.614,2023-1-17T13:33:15Z
2023-01-17T11:29:59Z,42.805,6.029,13.3036,4.60118,2470.614,2023-1-17T13:36:18Z
2023-01-17T11:33:02Z,42.805,6.029,13.3039,4.60109,2470.6,2023-1-17T13:39:21Z
2023-01-17T11:36:05Z,42.805,6.029,13.3032,4.60101,2470.6,2023-1-17T13:42:25Z
2023-01-17T11:39:09Z,42.805,6.029,13.3038,4.60104,2470.6,2023-1-17T13:45:28Z
2023-01-17T11:42:12Z,42.805,6.029,13.3029,4.60117,2470.6,2023-1-17T13:48:31Z
2023-01-17T11:45:15Z,42.805,6.029,13.3028,4.60105,2470.6,2023-1-17T13:51:34Z
2023-01-17T11:48:18Z,42.805,6.029,13.3029,4.60088,2470.577,2023-1-17T13:54:37Z
2023-01-17T11:51:21Z,42.805,6.029,13.3027,4.60092,2470.624,2023-1-17T13:57:40Z
2023-01-17T11:54:24Z,42.805,6.029,13.3031,4.60096,2470.577,2023-1-17T14:00:43Z
2023-01-17T11:57:27Z,42.805,6.029,13.3036,4.60108,2470.577,2023-1-17T14:03:46Z
2023-01-17T12:00:30Z,42.805,6.029,13.3026,4.60098,2470.614,2023-1-17T14:06:49Z
2023-01-17T12:03:33Z,42.805,6.029,13.3038,4.60105,2470.624,2023-1-17T14:09:52Z
2023-01-17T12:06:36Z,42.805,6.029,13.3030,4.60104,2470.614,2023-1-17T14:12:55Z
2023-01-17T12:09:39Z,42.805,6.029,13.3032,4.60114,2470.624,2023-1-17T14:15:59Z
2023-01-17T12:12:42Z,42.805,6.029,13.3035,4.60110,2470.624,2023-1-17T14:19:02Z
2023-01-17T12:15:46Z,42.805,6.029,13.3027,4.60102,2470.567,2023-1-17T14:22:05Z
2023-01-17T12:18:49Z,42.805,6.029,13.3034,4.60097,2470.591,2023-1-17T14:25:08Z
2023-01-17T12:21:52Z,42.805,6.029,13.3031,4.60092,2470.637,2023-1-17T14:28:11Z
2023-01-17T12:24:55Z,42.805,6.029,13.3030,4.60097,2470.624,2023-1-17T14:31:14Z
2023-01-17T12:27:58Z,42.805,6.029,13.3033,4.60119,2470.637,2023-1-17T14:34:17Z
2023-01-17T12:31:01Z,42.805,6.029,13.3046,4.60119,2470.661,2023-1-17T14:37:20Z
2023-01-17T12:34:04Z,42.805,6.029,13.3031,4.60099,2470.6,2023-1-17T14:40:23Z
2023-01-17T12:37:07Z,42.805,6.029,13.3030,4.60104,2470.6,2023-1-17T14:43:26Z
2023-01-17T12:40:10Z,42.805,6.029,13.3037,4.60108,2470.6,2023-1-17T14:46:29Z
2023-01-17T12:43:13Z,42.805,6.029,13.3046,4.60120,2470.6,2023-1-17T14:49:33Z
2023-01-17T12:46:17Z,42.805,6.029,13.3032,4.60094,2470.614,2023-1-17T14:52:36Z
2023-01-17T12:49:20Z,42.805,6.029,13.3045,4.60127,2470.6,2023-1-17T14:55:39Z
2023-01-17T12:52:23Z,42.805,6.029,13.3026,4.60090,2470.624,2023-1-17T14:58:42Z
2023-01-17T12:55:26Z,42.805,6.029,13.3036,4.60101,2470.591,2023-1-17T15:01:45Z
2023-01-17T12:58:29Z,42.805,6.029,13.3032,4.60116,2470.624,2023-1-17T15:04:48Z
2023-01-17T13:01:32Z,42.805,6.029,13.3045,4.60111,2470.624,2023-1-17T15:07:51Z
2023-01-17T13:04:35Z,42.805,6.029,13.3046,4.60106,2470.614,2023-1-17T15:10:54Z
2023-01-17T13:07:38Z,42.805,6.029,13.3034,4.60117,2470.624,2023-1-17T15:13:57Z
2023-01-17T13:10:41Z,42.805,6.029,13.3036,4.60107,2470.6,2023-1-17T15:17:00Z
2023-01-17T13:13:44Z,42.805,6.029,13.3031,4.60111,2470.637,2023-1-17T15:20:04Z
2023-01-17T13:16:47Z,42.805,6.029,13.3036,4.60099,2470.624,2023-1-17T15:23:07Z
2023-01-17T13:19:51Z,42.805,6.029,13.3042,4.60122,2470.614,2023-1-17T15:26:10Z
2023-01-17T13:22:54Z,42.805,6.029,13.3036,4.60123,2470.614,2023-1-17T15:29:13Z
2023-01-17T13:25:57Z,42.805,6.029,13.3044,4.60127,2470.624,2023-1-17T15:32:16Z
2023-01-17T13:29:00Z,42.805,6.029,13.3040,4.60119,2470.661,2023-1-17T15:35:19Z
2023-01-17T13:32:03Z,42.805,6.029,13.3040,4.60113,2470.624,2023-1-17T15:38:22Z
2023-01-17T13:35:06Z,42.805,6.029,13.3037,4.60107,2470.614,2023-1-17T15:41:25Z
2023-01-17T13:38:09Z,42.805,6.029,13.3042,4.60113,2470.661,2023-1-17T15:44:28Z
2023-01-17T13:41:12Z,42.805,6.029,13.3045,4.60107,2470.637,2023-1-17T15:47:31Z
2023-01-17T13:44:15Z,42.805,6.029,13.3034,4.60099,2470.624,2023-1-17T15:50:34Z
2023-01-17T13:47:18Z,42.805,6.029,13.3029,4.60114,2470.661,2023-1-17T15:53:38Z
2023-01-17T13:50:21Z,42.805,6.029,13.3039,4.60115,2470.624,2023-1-17T15:56:41Z
2023-01-17T13:53:25Z,42.805,6.029,13.3039,4.60115,2470.624,2023-1-17T15:59:44Z
2023-01-17T13:56:28Z,42.805,6.029,13.3047,4.60119,2470.624,2023-1-17T16:02:47Z
2023-01-17T13:59:31Z,42.805,6.029,13.3039,4.60109,2470.614,2023-1-17T16:05:50Z
2023-01-17T14:02:34Z,42.805,6.029,13.3037,4.60097,2470.624,2023-1-17T16:08:53Z
2023-01-17T14:05:37Z,42.805,6.029,13.3036,4.60120,2470.646,2023-1-17T16:11:56Z
2023-01-17T14:08:40Z,42.805,6.029,13.3034,4.60121,2470.624,2023-1-17T16:14:59Z
2023-01-17T14:11:43Z,42.805,6.029,13.3043,4.60122,2470.614,2023-1-17T16:18:02Z
2023-01-17T14:14:46Z,42.805,6.029,13.3032,4.60108,2470.684,2023-1-17T16:21:05Z
2023-01-17T14:17:49Z,42.805,6.029,13.3050,4.60112,2470.661,2023-1-17T16:24:08Z
2023-01-17T14:20:52Z,42.805,6.029,13.3041,4.60117,2470.646,2023-1-17T16:27:12Z
2023-01-17T14:23:55Z,42.805,6.029,13.3031,4.60107,2470.624,2023-1-17T16:30:15Z
2023-01-17T14:26:59Z,42.805,6.029,13.3036,4.60097,2470.637,2023-1-17T16:33:18Z
2023-01-17T14:30:02Z,42.805,6.029,13.3032,4.60093,2470.637,2023-1-17T16:36:21Z
2023-01-17T14:33:05Z,42.805,6.029,13.3035,4.60097,2470.624,2023-1-17T16:39:24Z
2023-01-17T14:36:08Z,42.805,6.029,13.3024,4.60092,2470.661,2023-1-17T16:42:27Z
2023-01-17T14:39:11Z,42.805,6.029,13.3038,4.60103,2470.624,2023-1-17T16:45:30Z
2023-01-17T14:42:14Z,42.805,6.029,13.3042,4.60095,2470.646,2023-1-17T16:48:33Z
2023-01-17T14:45:17Z,42.805,6.029,13.3038,4.60101,2470.637,2023-1-17T16:51:36Z
2023-01-17T14:48:20Z,42.805,6.029,13.3036,4.60114,2470.624,2023-1-17T16:54:39Z
2023-01-17T14:51:23Z,42.805,6.029,13.3040,4.60105,2470.637,2023-1-17T16:57:43Z
2023-01-17T14:54:26Z,42.805,6.029,13.3043,4.60117,2470.624,2023-1-17T17:00:46Z
2023-01-17T14:57:29Z,42.805,6.029,13.3037,4.60117,2470.637,2023-1-17T17:03:49Z
2023-01-17T15:00:33Z,42.805,6.029,13.3040,4.60115,2470.661,2023-1-17T17:06:52Z
2023-01-17T15:03:36Z,42.805,6.029,13.3043,4.60112,2470.684,2023-1-17T17:09:55Z
2023-01-17T15:06:39Z,42.805,6.029,13.3036,4.60096,2470.67,2023-1-17T17:12:58Z
2023-01-17T15:09:42Z,42.805,6.029,13.3042,4.60116,2470.624,2023-1-17T17:16:01Z
2023-01-17T15:12:45Z,42.805,6.029,13.3030,4.60109,2470.646,2023-1-17T17:19:04Z